STARLINK-11640, 63314

Orbit data source: Space-Track

STARLINK-11640, 63314 is a payload satellite owned by SpaceX/Seattle (US) in LEO that was launched on Tue, 18 Mar 2025 UTC via an FALCON 9 launch vehicle from the Air Force Eastern Test Range (AFETR). Payload-class satellites include a variety of spacecraft equipped with specific instruments for various scientific and technological missions. These include communications satellites like Starlink; space stations such as the ISS; scientific satellites like the Hubble; Earth observation satellites from companies like Planet Labs, Umbra, and HawkEye 360; GPS; miniature CubeSats for education and research; and military/defense satellites.

Loading next visibility...
Identifier
63314, 2025-057H
Orbit
LEO
Country
Flag of USUS
Related business
Manufacturer
SpaceX/Seattle
Mission
Operational Commercial Communications
Bus & Motor
STARLINK V2MD, Unknown motor
Mass
960 kg wet, ~910 kg dry
Launch date (UTC)
2025-03-18 (11 months ago)
Launch vehicle
FALCON 9
Launch site
Air Force Eastern Test Range (AFETR)
Object type
Payload
Rocket body
Debris
Shape & HBR
Box + 2 Pan, 18.1 m
Radar Cross Section
36.964 m², Large (>1 m²)

Expand to show TLE details & history
Last TLE update: 7 hours ago

TLE from 7 hours ago
0 STARLINK-11640
1 63314U 25057H   26034.59245874  .00259875  00000-0  19492-2 0  9998
2 63314  42.9989 110.1803 0001740 286.7009  73.3667 15.71045090 51817
Epoch: 2026-02-03T14:13Z
TLE epoch observation values (Epoch: 2026-02-03T14:13:08.435Z)
Latitude
-0.00005°
Longitude
123.12393°
Altitude
355.345 km
Speed
7.698 km/s
True Right ascension
07h 20m 43s
True Declination
0° 00' 00"
Sunlit
Object was in full shadow at epoch
Visualization orbit readout
Latitude
Unknown
Longitude
Unknown
Altitude
Unknown
Speed
Unknown
Apparent Right ascension
Unknown
Apparent Declination
Unknown
Sunlit
N/A
Visualization observer readout
Local Sidereal Time
22:40:04
Azimuth
Unknown
Elevation
Unknown
Doppler factor
Unknown
Orbital elements
Apogee altitude
359.063 km
Perigee altitude
356.719 km
Semi-major axis
6,736.028 km
Eccentricity
0.00017
Inclination
42.9989°
RAAN
110.1803°
Arg. of periapsis
286.7009°
True anomaly
73.38581°
Mean anomaly
73.3667°
Eccentric anomaly
73.37625°
Mean motion
3.92588 °/min
Orbital period
91.7 mins
BSTAR
0.0019492
Loading maneuver chart data...
Computing Atmospheric mass density...
Loading historical data...
Loading historical data...
Loading historical data...
Loading historical data...
Loading historical data...
Loading historical data...
Loading historical data...

Documentation

Showing up to 5 results
|